Location: Guayaquil
(2.1667°S, 79.9000°W)
Time: 23:24:08
(UTC-05:00)

ISS - Visible Passes

Search period start: 30 November 2023 00:00
Search period end: 10 December 2023 00:00
Orbit: 416 x 417 km, 51.6° (Epoch: 30 November)

Date Brightness Start Highest point End Pass type
(mag) Time Alt. Az. Time Alt. Az. Time Alt. Az.
07 Dec -0.8 20:14:38 10° WNW 20:14:57 12° WNW 20:14:57 12° WNW visible
08 Dec -3.8 19:25:38 10° NW 19:28:57 83° SW 19:32:18 10° SSE visible
09 Dec -3.2 18:37:09 10° NNW 18:40:15 36° NE 18:43:20 10° ESE visible
